Location: Unspecified
(0.0000°N, 0.0000°E)
Time: 09:04:41
(UTC+00:00)

Courier 1B Rocket - Pass Details

Date: 28 May 2026
Orbit: 920 x 1201 km, 28.2° (Epoch: 9 June)

Event Time Altitude Azimuth Distance (km) Brightness Sun altitude
Rises 23:58:53 0° 256° (WSW) 4,080 - -68.6°
Reaches altitude 10° 00:01:59 10° 264° (W) 3,097 - -68.5°
Maximum altitude 00:09:03 40° 330° (NNW) 1,629 - -68.4°
Drops below altitude 10° 00:15:47 10° 38° (NE) 2,934 - -68.1°
Sets 00:18:39 0° 45° (NE) 3,845 - -67.9°
